Terminal Aerodrome Forecast
Issued by NWS

Home | Current Version | Previous Version | Text Only | Print | Product List | Glossary On
Versions: 1 2 3 4 5 6 7 8 9 10 11 12 13 14 15 16 17 18 19 20 21 22 23 24 25 26
000
FTUS41 KPHI 220300 AAB
TAFPNE
TAF AMD
KPNE 220310Z 2203/2224 26008KT P6SM BKN070
      TEMPO 2203/2204 26012G20KT -SHRA
     FM221300 32012G20KT P6SM FEW050
     FM222300 33008KT P6SM SKC=

USA.gov is the U.S. government's official web portal to all federal, state and local government web resources and services.